Weather in Nizhnyaya Shakhtama

Russia / Zabaykalsky Krai     51°23′11″N   117°41′19″E
temp.,
°C
wind,
m/s
gust,
m/s
humid.,
%
clouds,
%
prec.,
mm/h
press.,
hPa
HPBL,
m
10 may, mon
mon1000:00+3se1152100 0.0 101010
03:00+3w1155100 0.0 101013
06:00+1sse118091 0.3 101114
09:00+7se126398 0.5 1009623
12:00+11sw1345100 0.6 10071631
15:00+12sse2336100 0.9 10052115
18:00+10sw2351100 0.2 10051402
21:00+6ne2483100 0.7 1006385
11 may, tue
tue1100:00+5nne2393100 2.4 1006562
03:00+3nne2697100 3.1 1006491
06:00+2nnw2798100 1.3 1007385
09:00+5n5879100 1.3 1006893
12:00+7nne5871100 0.1 10051253
15:00+10nne5847100 0.1 10022076
18:00+10nne4950100 0.0 10011494
21:00+6n3862100 0.1 1003335
12 may, wed
wed1200:00+4nw2374100 0.0 100352
03:00+3nw41273100 0.0 1003566
06:00+2nw311755 0.0 1004467
09:00+8nnw510460 0.0 10031287
12:00+12nw6103573 0.0 10012289
15:00+13wnw71034100 0.0 10002835
18:00+13wnw5103091 0.0 10002880
21:00+7w264299 0.0 1003104
13 may, thu
thu1300:00+4wsw22515 0.0 100526
03:00+2wsw22545 0.0 100616
06:00+1sw22554 0.0 100719
09:00+8wnw3631100 0.0 10061330
12:00+11nw4824100 0.0 10052177
15:00+11nw4622100 0.0 10042395
18:00+10nw3424100 0.0 10042162
21:00+6ssw1134100 0.0 100510
14 may, fri
fri1400:00+5n2137100 0.0 100521
03:00+3ene2668100 0.1 1006272
06:00+2ne3876100 0.1 1006474
09:00+4n4653100 0.1 1006927
12:00+7n5835100 0.0 10061941
15:00+9nnw6927100 0.0 10033312
18:00+7nnw694454 0.3 10051761
21:00+3nnw2669100 1.0 1009153